Volver al catálogo

THORAD DELTA 1 DEB

ActivoSSO
NORAD 8296·DEBRIS·🇺🇸 United States

Lanzado Nov 15, 1974 desde Vandenberg Space Force Base

Loading…

Próximos Pases (próximas 24 horas)

TLE

ActualizadoSource: Space-Track

Época: Sep 14, 2026, 10:38 UTC

1 08296U 74089BD  26257.44327418  .00000198  00000-0  18396-2 0  9995
2 08296 102.5532  82.9158 0221537  18.9043  10.6490 12.33427889359467

Sigue THORAD DELTA 1 DEB en tiempo real con AllMySat

Download on the App Store